Group_ship,Cruise,JD_GMT,Date_DDMMYYYY,TIME_HH:MM:SS,Lat_dec_degree,Long_dec_degree,xCO2eq_ppm,xCO2a_ppm,Pres_Equi_hPa,Pres_sealevel_hPa,EqTemp_C,SST(TSG)_C,Sal(TSG)_Permil,Water_flow_l/min,Gasflow_IR_ml/min,Temp_IR_C,Pres_IR_hPa,Ship_heading_true_degree,Ship_speed_knot,Wind_dir_rel_degree,Wind_speed_rel_m/s,fCO2W@SST_uatm,Qcflag_water,fCO2a_uatm,Qcflag_air,dfCO2_uatm,Fluoro_ug/l,Wind_speed_true_m/s,Wind_dir_true_degree,Air_temp_C,Oxygen
AOML_Explorer,Ex0704E,22.015,22012007,0:21:40,25.950,-79.752,365.38,-9.00,1019.44,1017.80,25.81,26.18,36.172,1.536,93.698,31.423,1019.442,61.700,21.200,31.000,17.500,360.08,2,-9.00,9,-9.00,0.05,11.38,138.29,23.41,231.70
AOML_Explorer,Ex0704E,22.017,22012007,0:24:13,25.957,-79.737,366.14,-9.00,1019.47,1017.80,25.89,26.20,36.175,1.552,94.047,31.407,1019.474,61.900,21.500,27.000,16.985,359.93,2,-9.00,9,-9.00,0.06,10.20,135.99,23.36,231.69
AOML_Explorer,Ex0704E,22.019,22012007,0:26:46,25.965,-79.722,366.84,-9.00,1019.45,1018.00,25.92,26.23,36.185,1.567,94.232,31.410,1019.450,61.600,21.600,34.000,16.985,360.46,2,-9.00,9,-9.00,0.06,11.49,144.33,23.34,231.47
AOML_Explorer,Ex0704E,22.020,22012007,0:29:19,25.972,-79.708,367.36,-9.00,1019.36,1017.70,25.95,26.23,36.173,1.530,94.546,31.417,1019.360,62.000,21.500,26.000,16.985,360.64,2,-9.00,9,-9.00,0.06,9.96,134.36,23.29,231.51
AOML_Explorer,Ex0704E,22.022,22012007,0:31:52,25.979,-79.693,367.90,-9.00,1019.56,1017.80,25.98,26.24,36.155,1.533,94.705,31.432,1019.560,62.800,21.500,27.000,17.500,360.99,2,-9.00,9,-9.00,0.06,10.51,134.43,23.27,231.64
AOML_Explorer,Ex0704E,22.024,22012007,0:34:25,25.986,-79.678,368.15,-9.00,1019.62,1017.80,25.99,26.24,36.150,1.530,95.142,31.452,1019.617,62.900,21.500,26.000,17.500,361.01,2,-9.00,9,-9.00,0.07,10.23,132.43,23.25,231.39
AOML_Explorer,Ex0704E,22.026,22012007,0:36:58,25.993,-79.663,368.07,-9.00,1019.55,1017.80,26.00,26.30,36.188,1.535,94.992,31.472,1019.546,63.100,21.700,34.000,17.500,361.61,2,-9.00,9,-9.00,0.06,11.65,142.94,23.28,230.93
AOML_Explorer,Ex0704E,22.027,22012007,0:39:31,26.000,-79.647,368.23,-9.00,1019.38,1017.90,26.01,26.19,36.208,1.555,94.835,31.492,1019.377,63.300,21.700,34.000,17.500,359.87,2,-9.00,9,-9.00,0.06,11.64,143.08,23.28,231.28
AOML_Explorer,Ex0704E,22.029,22012007,0:42:04,26.007,-79.632,369.20,-9.00,1019.53,1018.00,26.03,26.07,36.230,1.558,94.702,31.513,1019.532,63.500,21.700,33.000,17.500,359.04,2,-9.00,9,-9.00,0.07,11.36,141.55,23.3,231.00
AOML_Explorer,Ex0704E,22.031,22012007,0:44:37,26.014,-79.617,369.55,-9.00,1019.45,1017.90,25.95,26.02,36.305,1.519,94.398,31.536,1019.447,62.300,21.700,35.000,17.500,359.70,2,-9.00,9,-9.00,0.07,11.60,141.87,23.25,230.91
AOML_Explorer,Ex0704E,22.033,22012007,0:47:10,26.021,-79.602,370.32,-9.00,1019.59,1018.10,25.86,25.94,36.363,1.549,94.095,31.558,1019.590,61.800,21.800,30.000,17.500,360.66,2,-9.00,9,-9.00,0.05,10.73,136.11,23.28,231.44
AOML_Explorer,Ex0704E,22.035,22012007,0:49:43,26.028,-79.587,370.37,-9.00,1019.72,1018.30,25.81,25.91,36.389,1.537,94.420,31.583,1019.721,62.100,21.800,34.000,17.500,361.03,2,-9.00,9,-9.00,0.06,11.45,141.06,23.27,231.90
AOML_Explorer,Ex0704E,22.036,22012007,0:52:16,26.036,-79.572,369.74,-9.00,1019.72,1018.10,25.75,25.97,36.454,1.532,94.592,31.605,1019.725,62.200,21.900,35.000,18.015,362.39,2,-9.00,9,-9.00,0.06,12.02,140.90,23.25,232.17
AOML_Explorer,Ex0704E,22.038,22012007,0:54:49,26.043,-79.557,368.48,-9.00,1019.78,1018.20,25.73,25.94,36.499,1.553,94.245,31.628,1019.783,62.500,21.700,30.000,19.044,361.06,2,-9.00,9,-9.00,0.08,11.83,130.77,23.17,232.08
AOML_Explorer,Ex0704E,22.040,22012007,0:57:22,26.050,-79.542,367.43,-9.00,1019.83,1018.40,25.75,25.89,36.510,1.494,94.988,31.649,1019.826,62.900,21.600,30.000,18.529,358.91,2,-9.00,9,-9.00,0.09,11.44,132.47,23.26,231.66
AOML_Explorer,Ex0704E,22.042,22012007,0:59:55,26.057,-79.527,366.98,-9.00,1019.81,1018.20,25.74,25.89,36.502,1.491,94.345,31.669,1019.813,61.600,21.500,36.000,16.985,358.71,2,-9.00,9,-9.00,0.09,11.25,142.50,23.26,231.56
AOML_Explorer,Ex0704E,22.057,22012007,1:21:40,26.118,-79.400,368.71,-9.00,1020.05,1018.60,25.63,25.74,36.463,1.544,93.706,31.838,1020.052,61.800,21.200,36.000,17.500,359.93,2,-9.00,9,-9.00,0.06,11.27,137.66,23.12,232.00
AOML_Explorer,Ex0704E,22.058,22012007,1:24:13,26.125,-79.386,369.32,-9.00,1019.91,1018.20,25.58,25.76,36.468,1.531,93.442,31.850,1019.915,61.700,21.200,43.000,17.500,361.58,2,-9.00,9,-9.00,0.08,12.64,146.00,23.15,231.62
AOML_Explorer,Ex0704E,22.060,22012007,1:26:46,26.132,-79.371,369.38,-9.00,1019.98,1018.40,25.57,25.81,36.476,1.521,93.161,31.862,1019.982,61.800,21.100,39.000,17.500,362.45,2,-9.00,9,-9.00,0.08,11.84,141.00,23.16,230.90
AOML_Explorer,Ex0704E,22.062,22012007,1:29:19,26.139,-79.356,369.66,-9.00,1020.07,1018.60,25.58,25.83,36.477,1.529,93.141,31.873,1020.069,62.600,21.100,32.000,18.015,363.00,2,-9.00,9,-9.00,0.11,10.88,130.65,23.18,230.14
AOML_Explorer,Ex0704E,22.064,22012007,1:31:52,26.146,-79.342,369.93,-9.00,1020.01,1018.30,25.61,25.82,36.473,1.536,93.846,31.885,1020.008,62.300,21.100,43.000,18.015,362.65,2,-9.00,9,-9.00,0.10,12.95,144.33,23.21,228.66
AOML_Explorer,Ex0704E,22.066,22012007,1:34:25,26.153,-79.327,371.20,-9.00,1020.02,1018.30,25.63,25.76,36.489,1.517,93.646,31.896,1020.018,61.900,21.200,36.000,17.500,362.60,2,-9.00,9,-9.00,0.10,11.27,137.75,23.18,228.50
AOML_Explorer,Ex0704E,22.067,22012007,1:36:58,26.161,-79.312,371.98,-9.00,1020.03,1018.50,25.62,25.69,36.502,1.510,93.472,31.908,1020.027,62.300,21.000,37.000,17.500,362.62,2,-9.00,9,-9.00,0.10,11.39,138.25,23.28,226.74
AOML_Explorer,Ex0704E,22.069,22012007,1:39:31,26.168,-79.298,372.87,-9.00,1020.10,1018.50,25.56,25.69,36.507,1.528,93.724,31.921,1020.098,62.800,21.100,41.000,17.500,364.32,2,-9.00,9,-9.00,0.09,12.08,143.52,23.29,225.16
AOML_Explorer,Ex0704E,22.071,22012007,1:42:04,26.174,-79.283,374.83,-9.00,1020.19,1018.90,25.53,25.74,36.446,1.522,94.056,31.932,1020.194,63.300,21.100,34.000,19.044,367.59,2,-9.00,9,-9.00,0.11,11.83,129.24,23.34,226.91
AOML_Explorer,Ex0704E,22.073,22012007,1:44:37,26.182,-79.269,376.40,-9.00,1020.08,1018.70,25.52,25.79,36.436,1.526,93.410,31.947,1020.079,61.600,20.600,38.000,16.985,369.95,2,-9.00,9,-9.00,0.12,11.28,139.91,23.33,229.77
AOML_Explorer,Ex0704E,22.074,22012007,1:47:10,26.189,-79.255,374.91,-9.00,1020.18,1018.80,25.55,25.76,36.424,1.521,94.242,31.962,1020.183,62.300,20.700,35.000,16.985,367.43,2,-9.00,9,-9.00,0.10,10.74,137.17,23.42,230.12
AOML_Explorer,Ex0704E,22.076,22012007,1:49:43,26.196,-79.240,373.31,-9.00,1020.13,1018.40,25.59,25.80,36.406,1.503,94.204,31.978,1020.131,62.800,20.500,42.000,17.500,366.07,2,-9.00,9,-9.00,0.08,12.54,144.60,23.42,230.38
AOML_Explorer,Ex0704E,22.078,22012007,1:52:16,26.202,-79.226,372.62,-9.00,1019.93,1018.40,25.57,25.81,36.391,1.513,93.821,31.991,1019.932,62.600,20.400,43.000,16.470,365.66,2,-9.00,9,-9.00,0.07,11.91,148.32,23.38,230.87
AOML_Explorer,Ex0704E,22.080,22012007,1:54:49,26.208,-79.212,371.19,-9.00,1020.16,1018.50,25.60,25.82,36.380,1.511,94.461,32.003,1020.155,71.300,20.200,35.000,18.529,363.90,2,-9.00,9,-9.00,0.06,12.24,141.56,23.36,231.13
AOML_Explorer,Ex0704E,22.082,22012007,1:57:22,26.212,-79.196,369.98,-9.00,1020.11,1018.60,25.62,25.82,36.379,1.495,93.862,32.013,1020.112,79.000,20.100,32.000,19.044,362.60,2,-9.00,9,-9.00,0.06,12.14,143.46,23.4,231.53
AOML_Explorer,Ex0704E,22.083,22012007,1:59:55,26.214,-79.181,369.18,-9.00,1020.12,1018.80,25.62,25.82,36.378,1.523,94.086,32.024,1020.123,87.100,20.000,21.000,20.073,361.76,2,-9.00,9,-9.00,0.06,11.40,131.72,23.44,231.49
AOML_Explorer,Ex0704E,22.098,22012007,2:21:40,26.199,-79.048,372.12,-9.00,1020.51,1018.90,25.64,25.84,36.291,1.530,93.312,32.098,1020.510,100.000,20.400,24.000,18.529,364.61,2,-9.00,9,-9.00,0.11,9.92,149.76,23.57,229.30
AOML_Explorer,Ex0704E,22.100,22012007,2:24:13,26.197,-79.032,373.16,-9.00,1020.37,1018.90,25.65,25.83,36.281,1.530,93.591,32.095,1020.370,100.500,20.400,21.000,20.073,365.37,2,-9.00,9,-9.00,0.10,10.91,141.24,23.45,229.26
AOML_Explorer,Ex0704E,22.102,22012007,2:26:46,26.194,-79.016,373.07,-9.00,1020.22,1019.00,25.64,25.83,36.291,1.493,93.930,32.096,1020.225,100.600,20.700,20.000,20.073,365.39,2,-9.00,9,-9.00,0.12,10.60,139.05,23.51,229.09
AOML_Explorer,Ex0704E,22.104,22012007,2:29:19,26.191,-79.000,372.93,-9.00,1020.43,1018.90,25.63,25.79,36.303,1.512,93.360,32.096,1020.432,101.100,21.600,20.000,20.073,364.91,2,-9.00,9,-9.00,0.11,10.21,140.71,23.44,227.97
AOML_Explorer,Ex0704E,22.105,22012007,2:31:52,26.188,-78.983,373.27,-9.00,1020.37,1019.00,25.63,25.74,36.339,1.538,93.790,32.100,1020.366,101.000,22.200,18.000,20.073,364.54,2,-9.00,9,-9.00,0.09,9.70,138.33,23.43,228.47
AOML_Explorer,Ex0704E,22.107,22012007,2:34:25,26.185,-78.966,374.31,-9.00,1020.43,1018.90,25.60,25.63,36.434,1.505,93.893,32.101,1020.430,101.700,22.500,21.000,19.044,364.31,2,-9.00,9,-9.00,0.07,9.01,146.81,23.55,230.71
AOML_Explorer,Ex0704E,22.109,22012007,2:36:58,26.182,-78.949,372.79,-9.00,1020.21,1018.90,25.57,25.45,36.457,1.517,93.787,32.106,1020.210,101.000,22.800,18.000,20.073,360.59,2,-9.00,9,-9.00,0.06,9.40,137.74,23.55,231.90
AOML_Explorer,Ex0704E,22.111,22012007,2:39:31,26.179,-78.931,369.74,-9.00,1020.42,1019.10,25.47,25.03,36.599,1.511,93.531,32.110,1020.422,100.500,22.700,23.000,21.103,353.29,2,-9.00,9,-9.00,0.06,11.17,146.29,23.41,232.03
AOML_Explorer,Ex0704E,22.113,22012007,2:42:04,26.176,-78.914,367.45,-9.00,1020.46,1019.00,25.30,24.82,36.602,1.511,93.506,32.112,1020.461,101.300,22.300,20.000,20.073,350.62,2,-9.00,9,-9.00,0.07,10.00,143.09,23.48,231.76
AOML_Explorer,Ex0704E,22.114,22012007,2:44:37,26.173,-78.897,366.30,-9.00,1020.48,1019.00,24.96,24.82,36.597,1.512,93.782,32.113,1020.479,100.600,22.100,14.000,20.588,354.55,2,-9.00,9,-9.00,0.06,9.88,129.37,23.47,231.53
AOML_Explorer,Ex0704E,22.116,22012007,2:47:10,26.170,-78.880,365.44,-9.00,1020.56,1019.00,24.79,24.84,36.592,1.539,94.013,32.118,1020.561,101.200,22.100,19.000,19.559,356.54,2,-9.00,9,-9.00,0.06,9.43,141.30,23.39,231.66
AOML_Explorer,Ex0704E,22.118,22012007,2:49:43,26.167,-78.863,364.60,-9.00,1020.50,1019.10,24.76,24.83,36.595,1.514,94.135,32.118,1020.498,101.300,22.100,20.000,20.588,356.13,2,-9.00,9,-9.00,0.06,10.46,140.39,23.49,231.88
AOML_Explorer,Ex0704E,22.120,22012007,2:52:16,26.164,-78.846,364.32,-9.00,1020.38,1019.00,24.75,24.81,36.607,1.517,93.958,32.121,1020.378,101.900,22.100,23.000,20.588,355.50,2,-9.00,9,-9.00,0.07,10.79,145.39,23.46,231.30
AOML_Explorer,Ex0704E,22.121,22012007,2:54:49,26.161,-78.829,364.01,-9.00,1020.48,1019.20,24.74,24.72,36.628,1.485,94.321,32.119,1020.484,101.800,22.000,26.000,20.073,354.18,2,-9.00,9,-9.00,0.06,10.80,151.49,23.41,232.41
AOML_Explorer,Ex0704E,22.123,22012007,2:57:22,26.158,-78.812,364.23,-9.00,1020.51,1019.10,24.71,24.66,36.644,1.501,94.153,32.119,1020.507,101.300,22.000,22.000,20.588,354.01,2,-9.00,9,-9.00,0.05,10.72,143.16,23.51,232.92
AOML_Explorer,Ex0704E,22.125,22012007,2:59:55,26.154,-78.795,363.54,-9.00,1020.49,1019.10,24.65,24.58,36.663,1.518,94.375,32.121,1020.494,101.300,21.800,17.000,20.588,353.20,2,-9.00,9,-9.00,0.06,10.22,133.79,23.34,232.62
AOML_Explorer,Ex0704E,22.140,22012007,3:21:40,26.133,-78.645,369.60,-9.00,1020.69,1019.20,25.44,25.72,36.366,1.491,93.239,32.131,1020.693,99.100,23.100,12.000,20.073,363.55,2,-9.00,9,-9.00,0.15,8.92,129.95,23.42,226.83
AOML_Explorer,Ex0704E,22.142,22012007,3:24:13,26.130,-78.628,372.25,-9.00,1020.69,1019.20,25.48,25.70,36.377,1.486,93.823,32.126,1020.687,99.100,23.000,15.000,20.073,365.36,2,-9.00,9,-9.00,0.14,9.28,135.55,23.4,226.94
AOML_Explorer,Ex0704E,22.144,22012007,3:26:46,26.127,-78.610,373.75,-9.00,1020.74,1019.00,25.50,25.69,36.385,1.487,93.643,32.118,1020.736,102.000,23.000,14.000,19.559,366.33,2,-9.00,9,-9.00,0.14,8.71,138.17,23.4,226.54
AOML_Explorer,Ex0704E,22.145,22012007,3:29:19,26.123,-78.592,374.47,-9.00,1020.80,1019.20,25.50,25.65,36.409,1.502,94.159,32.116,1020.795,104.800,22.900,14.000,20.073,366.49,2,-9.00,9,-9.00,0.11,9.12,137.41,23.48,226.73
AOML_Explorer,Ex0704E,22.147,22012007,3:31:52,26.119,-78.575,374.77,-9.00,1020.81,1019.30,25.49,25.63,36.417,1.491,93.959,32.112,1020.811,105.200,22.900,15.000,20.073,366.63,2,-9.00,9,-9.00,0.10,9.20,139.34,23.48,227.48
AOML_Explorer,Ex0704E,22.149,22012007,3:34:25,26.115,-78.558,374.24,-9.00,1020.76,1019.20,25.46,25.54,36.446,1.489,94.080,32.109,1020.760,107.800,23.000,16.000,20.073,365.20,2,-9.00,9,-9.00,0.09,9.29,144.49,23.45,228.32
AOML_Explorer,Ex0704E,22.151,22012007,3:36:58,26.110,-78.540,372.94,-9.00,1020.79,1019.20,25.44,25.48,36.450,1.519,94.303,32.108,1020.790,107.300,22.900,14.000,20.588,363.50,2,-9.00,9,-9.00,0.08,9.53,137.58,23.42,229.18
AOML_Explorer,Ex0704E,22.152,22012007,3:39:31,26.105,-78.523,371.83,-9.00,1020.64,1019.10,25.38,25.34,36.491,1.508,93.896,32.106,1020.636,107.200,22.900,13.000,20.073,361.10,2,-9.00,9,-9.00,0.06,8.95,136.58,23.41,230.25
AOML_Explorer,Ex0704E,22.154,22012007,3:42:04,26.100,-78.506,370.36,-9.00,1020.72,1019.10,25.33,25.02,36.563,1.485,93.916,32.107,1020.719,107.000,22.700,12.000,19.559,355.93,2,-9.00,9,-9.00,0.07,8.50,135.86,23.42,231.53
AOML_Explorer,Ex0704E,22.156,22012007,3:44:37,26.095,-78.489,368.14,-9.00,1020.67,1019.30,25.21,24.98,36.559,1.508,94.337,32.105,1020.672,106.900,22.300,14.000,20.073,354.96,2,-9.00,9,-9.00,0.07,9.37,138.43,23.4,231.17
AOML_Explorer,Ex0704E,22.158,22012007,3:47:10,26.091,-78.473,366.97,-9.00,1020.60,1019.20,24.96,25.03,36.552,1.368,94.240,32.107,1020.603,107.300,22.300,13.000,20.588,358.27,2,-9.00,9,-9.00,0.09,9.73,135.06,23.39,230.54
AOML_Explorer,Ex0704E,22.160,22012007,3:49:43,26.086,-78.456,366.74,-9.00,1020.67,1019.20,24.90,25.07,36.543,1.398,93.796,32.103,1020.673,107.200,22.300,10.000,20.588,359.57,2,-9.00,9,-9.00,0.07,9.48,128.89,23.38,231.11
AOML_Explorer,Ex0704E,22.161,22012007,3:52:16,26.081,-78.439,366.78,-9.00,1020.63,1019.00,24.91,25.08,36.538,1.406,94.014,32.104,1020.635,107.200,22.200,10.000,19.559,359.63,2,-9.00,9,-9.00,0.06,8.51,129.88,23.33,231.55
AOML_Explorer,Ex0704E,22.163,22012007,3:54:49,26.077,-78.423,366.25,-9.00,1020.64,1019.10,24.93,25.07,36.535,1.402,94.434,32.101,1020.638,107.200,22.400,8.000,19.044,358.65,2,-9.00,9,-9.00,0.08,7.77,126.27,23.42,231.52
AOML_Explorer,Ex0704E,22.165,22012007,3:57:22,26.072,-78.406,365.81,-9.00,1020.55,1018.70,24.94,25.09,36.532,1.382,94.321,32.100,1020.551,107.600,22.300,11.000,20.073,358.34,2,-9.00,9,-9.00,0.09,9.03,131.51,23.4,230.79
AOML_Explorer,Ex0704E,22.167,22012007,3:59:55,26.067,-78.389,365.72,-9.00,1020.54,1019.10,24.94,25.14,36.522,1.419,94.540,32.097,1020.543,107.300,22.400,13.000,20.588,358.92,2,-9.00,9,-9.00,0.11,9.68,135.16,23.33,230.65
AOML_Explorer,Ex0704E,22.182,22012007,4:21:40,26.027,-78.244,367.86,-9.00,1020.62,1018.90,24.94,24.99,36.572,1.397,94.177,32.100,1020.617,106.600,22.900,11.000,20.073,358.84,2,-9.00,9,-9.00,0.07,8.85,133.80,23.33,231.24
AOML_Explorer,Ex0704E,22.183,22012007,4:24:13,26.023,-78.227,367.79,-9.00,1020.65,1019.20,24.91,24.98,36.569,1.398,94.063,32.094,1020.646,106.400,22.900,18.000,20.588,359.20,2,-9.00,9,-9.00,0.06,10.14,146.80,23.35,231.95
AOML_Explorer,Ex0704E,22.185,22012007,4:26:46,26.018,-78.210,367.36,-9.00,1020.63,1019.10,24.87,25.00,36.561,1.385,94.199,32.090,1020.632,106.500,22.800,13.000,19.559,359.61,2,-9.00,9,-9.00,0.07,8.61,138.93,23.29,232.01
AOML_Explorer,Ex0704E,22.187,22012007,4:29:19,26.014,-78.193,366.56,-9.00,1020.60,1018.90,24.86,24.97,36.579,1.428,94.539,32.087,1020.604,106.300,22.700,15.000,19.559,358.51,2,-9.00,9,-9.00,0.08,8.87,142.40,23.32,231.69
AOML_Explorer,Ex0704E,22.189,22012007,4:31:52,26.009,-78.176,366.39,-9.00,1020.61,1019.00,24.87,24.93,36.579,1.374,94.314,32.084,1020.610,106.300,22.600,11.000,19.559,357.68,2,-9.00,9,-9.00,0.07,8.50,134.03,23.32,231.78
AOML_Explorer,Ex0704E,22.191,22012007,4:34:25,26.005,-78.159,366.63,-9.00,1020.59,1019.10,24.84,24.98,36.553,1.380,94.366,32.086,1020.586,105.200,22.500,13.000,19.044,359.04,2,-9.00,9,-9.00,0.06,8.34,139.84,23.36,232.21
AOML_Explorer,Ex0704E,22.192,22012007,4:36:58,26.001,-78.142,366.49,-9.00,1020.62,1019.10,24.81,25.47,36.432,1.419,94.756,32.085,1020.618,104.800,22.200,15.000,19.044,366.64,2,-9.00,9,-9.00,0.07,8.80,144.57,23.4,231.34
AOML_Explorer,Ex0704E,22.194,22012007,4:39:31,25.997,-78.125,365.30,-9.00,1020.63,1018.90,24.90,25.69,36.439,1.383,94.660,32.085,1020.632,105.300,22.200,11.000,19.044,367.15,2,-9.00,9,-9.00,0.07,8.31,136.17,23.38,230.36
AOML_Explorer,Ex0704E,22.196,22012007,4:42:04,25.993,-78.108,364.57,-9.00,1020.64,1019.10,25.22,25.72,36.462,1.378,94.477,32.083,1020.644,105.500,22.300,16.000,20.073,361.96,2,-9.00,9,-9.00,0.08,9.78,144.02,23.38,230.64
AOML_Explorer,Ex0704E,22.198,22012007,4:44:37,25.988,-78.092,365.87,-9.00,1020.63,1019.00,25.41,25.66,36.458,1.382,94.550,32.082,1020.629,106.000,22.400,9.000,20.073,359.45,2,-9.00,9,-9.00,0.09,8.93,128.56,23.4,230.72
AOML_Explorer,Ex0704E,22.199,22012007,4:47:10,25.984,-78.075,366.55,-9.00,1020.65,1018.90,25.47,25.63,36.449,1.368,94.396,32.081,1020.646,106.300,22.500,10.000,19.044,358.89,2,-9.00,9,-9.00,0.08,7.96,132.65,23.42,230.76
AOML_Explorer,Ex0704E,22.201,22012007,4:49:43,25.979,-78.058,367.20,-9.00,1020.64,1018.90,25.45,25.58,36.450,1.372,94.564,32.079,1020.639,106.700,22.500,11.000,18.529,359.13,2,-9.00,9,-9.00,0.07,7.52,135.48,23.34,230.68
AOML_Explorer,Ex0704E,22.203,22012007,4:52:16,25.975,-78.041,367.92,-9.00,1020.64,1019.00,25.43,25.58,36.449,1.386,94.470,32.076,1020.637,106.900,22.400,11.000,19.044,360.09,2,-9.00,9,-9.00,0.07,8.04,133.93,23.33,230.15
AOML_Explorer,Ex0704E,22.205,22012007,4:54:49,25.970,-78.024,368.67,-9.00,1020.63,1018.90,25.40,25.56,36.456,1.380,94.556,32.075,1020.630,107.200,22.500,8.000,18.015,360.99,2,-9.00,9,-9.00,0.07,6.73,128.62,23.37,230.38
AOML_Explorer,Ex0704E,22.207,22012007,4:57:22,25.965,-78.007,369.30,-9.00,1020.71,1019.10,25.39,25.53,36.461,1.388,94.945,32.070,1020.707,107.200,22.500,14.000,20.073,361.42,2,-9.00,9,-9.00,0.07,9.25,138.32,23.37,230.27
AOML_Explorer,Ex0704E,22.208,22012007,4:59:55,25.961,-77.991,369.41,-9.00,1020.77,1018.90,25.37,25.51,36.468,1.387,94.809,32.068,1020.773,107.700,22.600,11.000,19.559,361.43,2,-9.00,9,-9.00,0.07,8.44,132.59,23.34,230.26
AOML_Explorer,Ex0704E,22.223,22012007,5:21:40,25.919,-77.846,369.02,-9.00,1020.76,1019.00,25.07,25.07,36.541,1.385,91.387,32.057,1020.761,101.900,23.000,16.000,18.015,359.34,2,-9.00,9,-9.00,0.07,7.11,139.24,23.33,231.60
AOML_Explorer,Ex0704E,22.225,22012007,5:24:13,25.916,-77.828,368.95,-9.00,1020.78,1019.00,25.01,24.97,36.572,1.369,91.865,32.052,1020.778,102.000,23.100,14.000,18.015,358.68,2,-9.00,9,-9.00,0.07,6.97,137.80,23.3,231.68
AOML_Explorer,Ex0704E,22.227,22012007,5:26:46,25.913,-77.811,368.47,-9.00,1020.73,1019.00,24.95,24.86,36.601,1.394,91.910,32.045,1020.731,101.300,23.000,16.000,18.015,357.42,2,-9.00,9,-9.00,0.06,7.36,142.94,23.29,232.01
AOML_Explorer,Ex0704E,22.229,22012007,5:29:19,25.910,-77.793,367.69,-9.00,1020.78,1019.00,24.87,24.86,36.576,1.393,92.045,32.042,1020.779,101.100,22.900,11.000,18.529,358.04,2,-9.00,9,-9.00,0.06,7.30,129.77,23.25,232.14
AOML_Explorer,Ex0704E,22.230,22012007,5:31:52,25.907,-77.776,366.61,-9.00,1020.70,1018.80,24.77,24.84,36.583,1.370,91.957,32.037,1020.698,100.800,22.900,15.000,18.015,358.10,2,-9.00,9,-9.00,0.06,7.28,140.20,23.28,232.38
AOML_Explorer,Ex0704E,22.232,22012007,5:34:25,25.904,-77.758,365.73,-9.00,1020.60,1018.80,24.75,24.83,36.600,1.370,92.811,32.033,1020.599,101.100,22.800,11.000,18.529,357.36,2,-9.00,9,-9.00,0.06,7.33,129.19,23.22,232.45
AOML_Explorer,Ex0704E,22.234,22012007,5:36:58,25.901,-77.741,365.18,-9.00,1020.67,1018.60,24.73,24.82,36.608,1.366,92.460,32.030,1020.673,100.700,22.700,7.000,18.015,357.05,2,-9.00,9,-9.00,0.06,6.60,121.04,23.19,232.48
AOML_Explorer,Ex0704E,22.236,22012007,5:39:31,25.898,-77.723,364.82,-9.00,1020.78,1018.80,24.72,24.85,36.588,1.407,92.495,32.026,1020.778,100.600,22.600,15.000,18.529,357.31,2,-9.00,9,-9.00,0.06,7.94,138.89,23.2,232.46
AOML_Explorer,Ex0704E,22.238,22012007,5:42:04,25.895,-77.706,364.52,-9.00,1020.71,1018.80,24.71,24.84,36.587,1.356,92.357,32.023,1020.708,101.100,22.600,14.000,18.529,356.99,2,-9.00,9,-9.00,0.06,7.79,136.67,23.24,232.58
AOML_Explorer,Ex0704E,22.239,22012007,5:44:37,25.892,-77.689,364.52,-9.00,1020.61,1018.60,24.72,24.84,36.592,1.402,93.061,32.022,1020.609,101.000,22.700,11.000,18.529,356.71,2,-9.00,9,-9.00,0.06,7.44,129.22,23.17,232.97
AOML_Explorer,Ex0704E,22.241,22012007,5:47:10,25.888,-77.671,364.12,-9.00,1020.61,1018.80,24.72,24.83,36.597,1.367,92.321,32.020,1020.610,106.500,22.800,13.000,19.559,356.27,2,-9.00,9,-9.00,0.05,8.63,139.19,23.18,232.94
AOML_Explorer,Ex0704E,22.243,22012007,5:49:43,25.882,-77.655,363.86,-9.00,1020.64,1018.70,24.72,24.78,36.617,1.372,93.144,32.023,1020.640,114.900,22.700,8.000,18.015,355.32,2,-9.00,9,-9.00,0.07,6.66,137.61,23.23,232.33
AOML_Explorer,Ex0704E,22.245,22012007,5:52:16,25.875,-77.639,363.80,-9.00,1020.62,1018.50,24.71,24.79,36.621,1.387,92.824,32.019,1020.622,117.700,22.500,8.000,18.015,355.47,2,-9.00,9,-9.00,0.07,6.79,141.28,23.24,232.33
AOML_Explorer,Ex0704E,22.246,22012007,5:54:49,25.867,-77.624,363.64,-9.00,1020.63,1018.50,24.68,24.78,36.636,1.378,93.142,32.018,1020.633,120.300,22.500,3.000,18.015,355.80,2,-9.00,9,-9.00,0.07,6.47,127.53,23.21,232.74
AOML_Explorer,Ex0704E,22.248,22012007,5:57:22,25.859,-77.609,363.60,-9.00,1020.55,1018.40,24.67,24.81,36.605,1.384,93.116,32.015,1020.554,119.800,22.400,3.000,18.015,356.12,2,-9.00,9,-9.00,0.05,6.54,128.87,23.15,232.89
AOML_Explorer,Ex0704E,22.250,22012007,5:59:55,25.851,-77.593,363.28,-9.00,1020.55,1018.40,24.67,24.90,36.573,1.389,93.404,32.014,1020.549,119.900,22.400,359.000,18.015,357.16,2,-9.00,9,-9.00,0.06,6.49,117.68,23.18,233.00
AOML_Explorer,Ex0704E,22.265,22012007,6:21:40,25.781,-77.467,363.07,-9.00,1020.40,1018.40,24.68,24.79,36.680,1.331,92.170,32.009,1020.404,122.900,22.100,9.000,18.529,355.18,2,-9.00,9,-9.00,0.07,7.45,143.53,23.26,233.11
AOML_Explorer,Ex0704E,22.267,22012007,6:24:13,25.772,-77.452,363.29,-9.00,1020.30,1018.40,24.68,24.80,36.671,1.349,92.383,32.004,1020.300,123.100,22.000,6.000,18.529,355.58,2,-9.00,9,-9.00,0.07,7.31,135.65,23.27,232.93
AOML_Explorer,Ex0704E,22.269,22012007,6:26:46,25.764,-77.438,363.32,-9.00,1020.35,1018.40,24.67,24.82,36.681,1.346,92.882,31.998,1020.345,122.900,22.000,9.000,18.529,356.03,2,-9.00,9,-9.00,0.07,7.51,143.85,23.22,233.07
AOML_Explorer,Ex0704E,22.270,22012007,6:29:19,25.755,-77.424,363.27,-9.00,1020.27,1018.30,24.67,24.81,36.684,1.371,92.729,31.994,1020.272,122.700,22.000,9.000,18.529,355.74,2,-9.00,9,-9.00,0.07,7.52,144.13,23.25,233.03
AOML_Explorer,Ex0704E,22.272,22012007,6:31:52,25.747,-77.409,363.28,-9.00,1020.19,1018.40,24.69,24.81,36.683,1.351,92.718,31.990,1020.187,122.100,22.000,9.000,18.529,355.48,2,-9.00,9,-9.00,0.07,7.55,144.42,23.25,232.88
AOML_Explorer,Ex0704E,22.274,22012007,6:34:25,25.739,-77.395,363.30,-9.00,1020.12,1018.40,24.69,24.80,36.688,1.379,92.611,31.987,1020.115,122.100,21.900,8.000,20.073,355.39,2,-9.00,9,-9.00,0.07,9.05,140.03,23.24,232.97
AOML_Explorer,Ex0704E,22.276,22012007,6:36:58,25.731,-77.380,363.27,-9.00,1020.11,1018.30,24.68,24.79,36.679,1.327,92.760,31.986,1020.112,121.700,21.900,15.000,19.044,355.27,2,-9.00,9,-9.00,0.07,8.73,157.56,23.26,232.93
AOML_Explorer,Ex0704E,22.277,22012007,6:39:31,25.722,-77.365,363.29,-9.00,1020.11,1018.30,24.68,24.80,36.664,1.324,92.936,31.983,1020.113,121.500,22.000,8.000,19.559,355.42,2,-9.00,9,-9.00,0.07,8.53,141.46,23.26,232.88
AOML_Explorer,Ex0704E,22.279,22012007,6:42:04,25.714,-77.351,363.39,-9.00,1020.01,1018.30,24.67,24.78,36.660,1.359,93.052,31.984,1020.011,121.400,22.000,7.000,20.073,355.24,2,-9.00,9,-9.00,0.08,8.99,139.14,23.21,232.62
AOML_Explorer,Ex0704E,22.281,22012007,6:44:37,25.706,-77.336,363.42,-9.00,1020.07,1018.40,24.67,24.75,36.650,1.340,92.871,31.983,1020.074,121.600,22.100,9.000,19.559,355.02,2,-9.00,9,-9.00,0.08,8.55,143.74,23.17,232.29
AOML_Explorer,Ex0704E,22.283,22012007,6:47:10,25.698,-77.321,363.35,-9.00,1020.06,1018.30,24.66,24.73,36.655,1.348,92.558,31.980,1020.057,119.600,22.100,8.000,20.073,354.82,2,-9.00,9,-9.00,0.08,8.90,137.87,23.24,232.00